Date String (YYYY-MM-DD hh:mm:ss) UTC,Instrument flags,Ambient pressure (hPa),Sample flow (lpm),Bypass flow (lpm),Sample temperature (°C),Ambient temperature (°C),ASC tube jacket temperature (°C),LED temperature (°C),Box temperature (°C),Sample RH (%),Span deviation,Mass concentration (μg/m³),Mass concentration (μg/m³),Mass concentration (μg/m³)
DateTimeUTC,F1_M11,P_M11,Q1_M11,Q2_M11,T1_M11,T2_M11,T3_M11,T4_M11,T5_M11,U1_M11,ZSPAN_M11,X2_M11,X0_M11,X1_M11
2022-12-29 19:00:00,,0817.2,4.96,0.00,23.2,22.1,00.0,31.9,25.0,12.5,0000.0,0004.48,0008.10,0004.21
2022-12-29 19:01:00,,0817.3,4.99,0.00,23.2,22.1,00.0,31.9,25.0,12.6,0000.0,0004.49,0008.17,0004.21
2022-12-29 19:02:00,,0817.3,4.97,0.00,23.2,22.2,00.0,31.9,25.0,12.6,0000.0,0004.50,0008.22,0004.23
2022-12-29 19:03:00,,0817.3,5.00,0.00,23.2,22.2,00.0,31.9,25.0,12.6,0000.0,0004.54,0008.29,0004.25
2022-12-29 19:04:00,,0817.2,4.98,0.00,23.3,22.2,00.0,31.9,25.0,12.5,0000.0,0004.57,0008.00,0004.27
2022-12-29 19:05:00,,0817.2,5.04,0.00,23.3,22.3,00.0,32.0,25.0,12.6,0000.0,0004.60,0007.60,0004.29
2022-12-29 19:06:00,,0817.2,5.00,0.00,23.3,22.3,00.0,32.0,25.1,12.7,0000.0,0004.60,0007.33,0004.30
2022-12-29 19:07:00,,0817.3,4.97,0.00,23.3,22.3,00.0,32.0,25.1,12.7,0000.0,0004.61,0007.31,0004.32
2022-12-29 19:08:00,,0817.3,4.99,0.00,23.3,22.3,00.0,32.0,25.1,12.7,0000.0,0004.63,0007.41,0004.32
2022-12-29 19:09:00,,0817.2,4.98,0.00,23.4,22.3,00.0,32.0,25.1,12.7,0000.0,0004.64,0007.42,0004.32
2022-12-29 19:10:00,,0817.2,5.02,0.00,23.4,22.3,00.0,32.0,25.2,12.7,0000.0,0004.62,0007.27,0004.31
2022-12-29 19:11:00,,0817.1,4.98,0.00,23.4,22.4,00.0,32.1,25.2,12.5,0000.0,0004.64,0007.35,0004.30
2022-12-29 19:12:00,,0817.1,5.00,0.00,23.4,22.4,00.0,32.1,25.2,12.5,0000.0,0004.62,0007.18,0004.31
2022-12-29 19:13:00,,0817.1,5.00,0.00,23.4,22.4,00.0,32.1,25.1,12.4,0000.0,0004.60,0007.33,0004.30
2022-12-29 19:14:00,,0817.1,4.99,0.00,23.4,22.4,00.0,32.1,25.1,12.3,0000.0,0004.57,0007.70,0004.30
2022-12-29 19:15:00,,0817.2,4.99,0.00,23.4,22.4,00.0,32.1,25.2,12.3,0000.0,0004.55,0007.64,0004.29
2022-12-29 19:16:00,,0817.3,4.97,0.00,23.5,22.4,00.0,32.1,25.2,12.4,0000.0,0004.50,0007.51,0004.27
2022-12-29 19:17:00,,0817.2,5.03,0.00,23.5,22.4,00.0,32.2,25.2,12.4,0000.0,0004.47,0007.42,0004.26
2022-12-29 19:18:00,,0817.2,4.99,0.00,23.5,22.5,00.0,32.2,25.3,12.4,0000.0,0004.46,0007.37,0004.25
2022-12-29 19:19:00,,0817.2,5.02,0.00,23.5,22.5,00.0,32.2,25.3,12.4,0000.0,0004.44,0007.24,0004.25
2022-12-29 19:20:00,,0817.1,5.00,0.00,23.5,22.5,00.0,32.2,25.3,12.5,0000.0,0004.43,0007.11,0004.26
2022-12-29 19:21:00,,0817.1,4.98,0.00,23.6,22.5,00.0,32.2,25.3,12.4,0000.0,0004.45,0007.19,0004.29
2022-12-29 19:22:00,,0817.1,4.99,0.00,23.6,22.5,00.0,32.2,25.3,12.5,0000.0,0004.45,0007.18,0004.30
2022-12-29 19:23:00,,0817.1,5.00,0.00,23.6,22.6,00.0,32.3,25.4,12.3,0000.0,0004.46,0007.49,0004.31
2022-12-29 19:24:00,,0817.1,5.04,0.00,23.6,22.6,00.0,32.3,25.4,11.0,0000.0,0004.43,0007.78,0004.26
2022-12-29 19:25:00,,0817.1,5.00,0.00,23.6,22.6,00.0,32.3,25.4,10.5,0000.0,0004.38,0007.05,0004.20
2022-12-29 19:26:00,,0817.1,4.98,0.00,23.6,22.6,00.0,32.3,25.5,09.8,0000.0,0004.29,0007.05,0004.10
2022-12-29 19:27:00,,0817.3,4.96,0.00,23.7,22.6,00.0,32.3,25.5,09.1,0000.0,0004.17,0006.96,0003.97
2022-12-29 19:28:00,,0817.1,5.03,0.00,23.7,22.6,00.0,32.3,25.5,08.1,0000.0,0004.02,0006.71,0003.82
2022-12-29 19:29:00,,0817.1,5.09,0.00,23.7,22.6,00.0,32.4,25.5,07.9,0000.0,0003.83,0006.36,0003.64
2022-12-29 19:30:00,,0817.1,5.01,0.00,23.7,22.6,00.0,32.4,25.5,08.4,0000.0,0003.63,0005.99,0003.45
2022-12-29 19:31:00,,0817.1,4.98,0.00,23.7,22.6,00.0,32.4,25.5,09.8,0000.0,0003.52,0005.79,0003.34
2022-12-29 19:32:00,,0817.1,5.00,0.00,23.7,22.6,00.0,32.4,25.5,10.7,0000.0,0003.46,0005.71,0003.28
2022-12-29 19:33:00,,0817.2,4.97,0.00,23.7,22.6,00.0,32.4,25.5,10.7,0000.0,0003.39,0006.56,0003.22
2022-12-29 19:34:00,,0817.2,4.99,0.00,23.7,22.6,00.0,32.4,25.5,11.0,0000.0,0003.36,0006.36,0003.18
2022-12-29 19:35:00,,0817.2,5.05,0.00,23.7,22.6,00.0,32.4,25.5,11.6,0000.0,0003.42,0005.82,0003.21
2022-12-29 19:36:00,,0817.3,4.99,0.00,23.7,22.6,00.0,32.4,25.5,11.7,0000.0,0003.50,0005.99,0003.28
2022-12-29 19:37:00,,0817.3,5.03,0.00,23.7,22.6,00.0,32.4,25.5,11.8,0000.0,0003.61,0006.16,0003.39
2022-12-29 19:38:00,,0817.4,4.99,0.00,23.7,22.6,00.0,32.5,25.5,11.9,0000.0,0003.76,0006.43,0003.52
2022-12-29 19:39:00,,0817.4,4.98,0.00,23.7,22.6,00.0,32.5,25.5,12.1,0000.0,0003.97,0007.14,0003.71
2022-12-29 19:40:00,,0817.4,4.99,0.00,23.7,22.5,00.0,32.5,25.5,12.3,0000.0,0004.21,0007.50,0003.95
2022-12-29 19:41:00,,0817.3,5.02,0.00,23.6,22.5,00.0,32.5,25.4,12.6,0000.0,0004.50,0007.77,0004.21
2022-12-29 19:42:00,,0817.3,5.02,0.00,23.6,22.5,00.0,32.5,25.4,12.6,0000.0,0004.71,0008.00,0004.40
2022-12-29 19:43:00,,0817.3,5.00,0.00,23.6,22.5,00.0,32.5,25.3,12.7,0000.0,0004.86,0008.13,0004.55
2022-12-29 19:44:00,,0817.3,4.97,0.00,23.6,22.5,00.0,32.5,25.3,12.7,0000.0,0004.98,0007.67,0004.69
2022-12-29 19:45:00,,0817.4,4.99,0.00,23.6,22.5,00.0,32.5,25.4,12.7,0000.0,0005.10,0007.73,0004.82
2022-12-29 19:46:00,,0817.3,5.00,0.00,23.6,22.4,00.0,32.5,25.4,12.5,0000.0,0005.18,0007.78,0004.92
2022-12-29 19:47:00,,0817.4,5.02,0.00,23.6,22.4,00.0,32.4,25.3,12.5,0000.0,0005.24,0007.81,0005.01
2022-12-29 19:48:00,,0817.3,5.03,0.00,23.5,22.3,00.0,32.4,25.2,12.2,0000.0,0005.27,0007.83,0005.06
2022-12-29 19:49:00,,0817.3,5.03,0.00,23.5,22.2,00.0,32.4,25.2,12.4,0000.0,0005.33,0007.98,0005.13
2022-12-29 19:50:00,,0817.2,4.98,0.00,23.5,22.1,00.0,32.4,25.2,11.7,0000.0,0005.34,0007.93,0005.16
2022-12-29 19:51:00,,0817.2,4.98,0.00,23.5,22.2,00.0,32.4,25.2,09.5,0000.0,0005.21,0007.82,0005.04
2022-12-29 19:52:00,,0817.3,4.98,0.00,23.5,22.2,00.0,32.4,25.3,08.5,0000.0,0004.99,0007.61,0004.84
2022-12-29 19:53:00,,0817.3,5.04,0.00,23.5,22.3,00.0,32.4,25.2,10.3,0000.0,0004.84,0007.48,0004.68
2022-12-29 19:54:00,,0817.4,5.04,0.00,23.5,22.3,00.0,32.4,25.2,12.1,0000.0,0004.81,0007.62,0004.63
2022-12-29 19:55:00,,0817.4,5.00,0.00,23.5,22.3,00.0,32.4,25.2,12.2,0000.0,0004.80,0008.48,0004.61
2022-12-29 19:56:00,,0817.4,4.98,0.00,23.5,22.4,00.0,32.4,25.2,12.1,0000.0,0004.75,0008.40,0004.57
2022-12-29 19:57:00,,0817.3,5.03,0.00,23.5,22.4,00.0,32.4,25.3,10.9,0000.0,0004.66,0008.63,0004.48
2022-12-29 19:58:00,,0817.3,5.03,0.00,23.6,22.4,00.0,32.4,25.4,10.7,0000.0,0004.54,0008.53,0004.35
2022-12-29 19:59:00,,0817.3,5.00,0.00,23.6,22.4,00.0,32.4,25.4,11.3,0000.0,0004.52,0008.53,0004.30
